Time,TemperatureF,DewpointF,PressureIn,WindDirection,WindDirectionDegrees,WindSpeedMPH,WindSpeedGustMPH,Humidity,HourlyPrecipIn,Conditions,Clouds,dailyrainin,SoftwareType,DateUTC
2013-02-21 00:03:00,-999.0,-99.9,30.31,NNW,345,16.0,19.0,-999,-99.99,,,-99.99,,2013-02-21 05:03:00,
2013-02-21 00:12:00,-999.0,-99.9,30.31,NNW,345,16.0,19.0,-999,-99.99,,,-99.99,,2013-02-21 05:12:00,
2013-02-21 00:22:00,-999.0,-99.9,30.31,NNW,345,16.0,19.0,-999,-99.99,,,-99.99,,2013-02-21 05:22:00,
2013-02-21 01:42:00,-999.0,-99.9,30.32,North,351,12.0,18.0,-999,-99.99,,,-99.99,,2013-02-21 06:42:00,
2013-02-21 01:52:00,-999.0,-99.9,30.32,North,354,13.0,16.0,-999,-99.99,,,-99.99,,2013-02-21 06:52:00,
2013-02-21 02:01:00,-999.0,-99.9,30.33,NNW,342,9.0,14.0,-999,-99.99,,,-99.99,,2013-02-21 07:01:00,
2013-02-21 02:11:00,-999.0,-99.9,30.33,NNW,329,11.0,13.0,-999,-99.99,,,-99.99,,2013-02-21 07:11:00,
2013-02-21 02:22:00,4.0,-99.9,30.32,NNW,345,10.0,14.0,-999,-99.99,,,-99.99,,2013-02-21 07:22:00,
2013-02-21 02:32:00,-999.0,-99.9,30.33,NNW,344,9.0,13.0,-999,-99.99,,,-99.99,,2013-02-21 07:32:00,
2013-02-21 02:42:00,-999.0,-99.9,30.33,NNW,328,9.0,13.0,-999,-99.99,,,-99.99,,2013-02-21 07:42:00,
2013-02-21 02:52:00,3.0,-99.9,30.33,NNW,334,10.0,14.0,-999,-99.99,,,-99.99,,2013-02-21 07:52:00,
2013-02-21 03:02:00,-999.0,-99.9,30.34,NW,324,10.0,13.0,-999,-99.99,,,-99.99,,2013-02-21 08:02:00,
2013-02-21 03:11:00,-999.0,-99.9,30.34,NNW,336,9.0,12.0,-999,-99.99,,,-99.99,,2013-02-21 08:11:00,
2013-02-21 03:21:00,-999.0,-99.9,30.34,NW,324,10.0,12.0,-999,-99.99,,,-99.99,,2013-02-21 08:21:00,
2013-02-21 03:32:00,-999.0,-99.9,30.34,NNW,332,9.0,13.0,-999,-99.99,,,-99.99,,2013-02-21 08:32:00,
2013-02-21 03:42:00,-999.0,-99.9,30.34,NW,326,10.0,14.0,-999,-99.99,,,-99.99,,2013-02-21 08:42:00,
2013-02-21 03:52:00,3.0,-99.9,30.34,NNW,330,9.0,15.0,-999,-99.99,,,-99.99,,2013-02-21 08:52:00,
2013-02-21 04:02:00,-999.0,-99.9,30.35,NNW,332,11.0,14.0,-999,-99.99,,,-99.99,,2013-02-21 09:02:00,
2013-02-21 04:11:00,-999.0,-99.9,30.35,NNW,330,11.0,13.0,-999,-99.99,,,-99.99,,2013-02-21 09:11:00,
2013-02-21 04:22:00,3.0,-99.9,30.35,NNW,339,10.0,13.0,-999,-99.99,,,-99.99,,2013-02-21 09:22:00,
2013-02-21 04:32:00,-999.0,-99.9,30.35,NNW,333,10.0,13.0,-999,-99.99,,,-99.99,,2013-02-21 09:32:00,
2013-02-21 04:42:00,-999.0,-99.9,30.35,NNW,329,12.0,15.0,-999,-99.99,,,-99.99,,2013-02-21 09:42:00,
2013-02-21 04:52:00,3.0,-99.9,30.35,NNW,339,11.0,13.0,-999,-99.99,,,-99.99,,2013-02-21 09:52:00,
2013-02-21 05:01:00,3.0,-99.9,30.35,NNW,339,11.0,13.0,-999,-99.99,,,-99.99,,2013-02-21 10:01:00,
2013-02-21 05:11:00,3.0,-99.9,30.35,NNW,339,11.0,13.0,-999,-99.99,,,-99.99,,2013-02-21 10:11:00,
2013-02-21 05:21:00,3.0,-99.9,30.35,NNW,339,11.0,13.0,-999,-99.99,,,-99.99,,2013-02-21 10:21:00,
2013-02-21 06:21:00,2.0,-99.9,30.38,NW,324,10.0,12.0,-999,-99.99,,,-99.99,,2013-02-21 11:21:00,
2013-02-21 06:31:00,-999.0,-99.9,30.39,NNW,331,10.0,11.0,-999,-99.99,,,-99.99,,2013-02-21 11:31:00,
2013-02-21 06:42:00,-999.0,-99.9,30.39,NNW,336,9.0,13.0,-999,-99.99,,,-99.99,,2013-02-21 11:42:00,
2013-02-21 06:52:00,2.0,-99.9,30.40,NNW,328,9.0,14.0,-999,-99.99,,,-99.99,,2013-02-21 11:52:00,
2013-02-21 07:01:00,-999.0,-99.9,30.40,NW,326,8.0,13.0,-999,-99.99,,,-99.99,,2013-02-21 12:01:00,
2013-02-21 07:11:00,-999.0,-99.9,30.41,NNW,336,9.0,11.0,-999,-99.99,,,-99.99,,2013-02-21 12:11:00,
2013-02-21 07:22:00,2.0,-99.9,30.41,NNW,327,9.0,11.0,-999,-99.99,,,-99.99,,2013-02-21 12:22:00,
2013-02-21 07:32:00,-999.0,-99.9,30.41,NNW,335,9.0,12.0,-999,-99.99,,,-99.99,,2013-02-21 12:32:00,
2013-02-21 07:43:00,-999.0,-99.9,30.41,NNW,346,9.0,12.0,-999,-99.99,,,-99.99,,2013-02-21 12:43:00,
2013-02-21 07:53:00,2.0,-99.9,30.41,NNW,341,8.0,12.0,-999,-99.99,,,-99.99,,2013-02-21 12:53:00,
2013-02-21 08:02:00,-999.0,-99.9,30.42,NNW,333,9.0,11.0,-999,-99.99,,,-99.99,,2013-02-21 13:02:00,
2013-02-21 08:12:00,-999.0,-99.9,30.43,NNW,342,6.0,11.0,-999,-99.99,,,-99.99,,2013-02-21 13:12:00,
2013-02-21 08:22:00,-999.0,-99.9,30.43,NNW,341,7.0,10.0,-999,-99.99,,,-99.99,,2013-02-21 13:22:00,
2013-02-21 08:32:00,-999.0,-99.9,30.44,NNW,332,6.0,9.0,-999,-99.99,,,-99.99,,2013-02-21 13:32:00,
2013-02-21 08:42:00,-999.0,-99.9,30.43,NW,321,8.0,10.0,-999,-99.99,,,-99.99,,2013-02-21 13:42:00,
2013-02-21 08:52:00,2.0,-99.9,30.44,NW,326,9.0,11.0,-999,-99.99,,,-99.99,,2013-02-21 13:52:00,
2013-02-21 09:02:00,-999.0,-99.9,30.45,NW,325,9.0,12.0,-999,-99.99,,,-99.99,,2013-02-21 14:02:00,
2013-02-21 09:11:00,-999.0,-99.9,30.45,NNW,343,7.0,11.0,-999,-99.99,,,-99.99,,2013-02-21 14:11:00,
2013-02-21 09:22:00,3.0,-99.9,30.45,NNW,336,8.0,12.0,-999,-99.99,,,-99.99,,2013-02-21 14:22:00,
2013-02-21 09:32:00,-999.0,-99.9,30.46,NNW,328,5.0,11.0,-999,-99.99,,,-99.99,,2013-02-21 14:32:00,
2013-02-21 09:42:00,-999.0,-99.9,30.45,North,351,9.0,13.0,-999,-99.99,,,-99.99,,2013-02-21 14:42:00,
2013-02-21 09:52:00,-999.0,-99.9,30.46,North,351,9.0,13.0,-999,-99.99,,,-99.99,,2013-02-21 14:52:00,
2013-02-21 10:02:00,-999.0,-99.9,30.46,NNW,340,8.0,11.0,-999,-99.99,,,-99.99,,2013-02-21 15:02:00,
2013-02-21 10:12:00,-999.0,-99.9,30.46,NW,313,6.0,9.0,-999,-99.99,,,-99.99,,2013-02-21 15:12:00,
2013-02-21 10:22:00,4.0,-99.9,30.46,NW,308,6.0,8.0,-999,-99.99,,,-99.99,,2013-02-21 15:22:00,
2013-02-21 10:32:00,-999.0,-99.9,30.46,NNW,332,7.0,9.0,-999,-99.99,,,-99.99,,2013-02-21 15:32:00,
2013-02-21 10:42:00,-999.0,-99.9,30.46,NW,318,6.0,8.0,-999,-99.99,,,-99.99,,2013-02-21 15:42:00,
2013-02-21 10:52:00,5.0,-99.9,30.45,North,354,4.0,9.0,-999,-99.99,,,-99.99,,2013-02-21 15:52:00,
2013-02-21 11:02:00,-999.0,-99.9,30.44,NNW,342,5.0,8.0,-999,-99.99,,,-99.99,,2013-02-21 16:02:00,
2013-02-21 11:12:00,-999.0,-99.9,30.44,North,6,6.0,9.0,-999,-99.99,,,-99.99,,2013-02-21 16:12:00,
2013-02-21 11:22:00,6.0,-99.9,30.43,NNW,341,5.0,8.0,-999,-99.99,,,-99.99,,2013-02-21 16:22:00,
2013-02-21 11:32:00,-999.0,-99.9,30.42,NNE,28,4.0,7.0,-999,-99.99,,,-99.99,,2013-02-21 16:32:00,
2013-02-21 11:42:00,-999.0,-99.9,30.41,NNE,27,5.0,7.0,-999,-99.99,,,-99.99,,2013-02-21 16:42:00,
2013-02-21 11:52:00,8.0,-99.9,30.40,East,86,3.0,5.0,-999,-99.99,,,-99.99,,2013-02-21 16:52:00,
2013-02-21 12:02:00,-999.0,-99.9,30.41,SW,232,3.0,5.0,-999,-99.99,,,-99.99,,2013-02-21 17:02:00,
2013-02-21 12:12:00,-999.0,-99.9,30.41,SW,220,1.0,3.0,-999,-99.99,,,-99.99,,2013-02-21 17:12:00,
2013-02-21 12:22:00,11.0,-99.9,30.41,West,262,1.0,2.0,-999,-99.99,,,-99.99,,2013-02-21 17:22:00,
2013-02-21 12:32:00,-999.0,-99.9,30.40,WNW,298,3.0,4.0,-999,-99.99,,,-99.99,,2013-02-21 17:32:00,
2013-02-21 12:42:00,-999.0,-99.9,30.39,NW,314,2.0,4.0,-999,-99.99,,,-99.99,,2013-02-21 17:42:00,
2013-02-21 12:52:00,12.0,-99.9,30.39,NNW,347,2.0,4.0,-999,-99.99,,,-99.99,,2013-02-21 17:52:00,
2013-02-21 13:02:00,-999.0,-99.9,30.40,WNW,288,3.0,3.0,-999,-99.99,,,-99.99,,2013-02-21 18:02:00,
2013-02-21 13:12:00,-999.0,-99.9,30.41,SSW,208,4.0,5.0,-999,-99.99,,,-99.99,,2013-02-21 18:12:00,
2013-02-21 13:22:00,14.0,-99.9,30.42,SSW,210,5.0,8.0,-999,-99.99,,,-99.99,,2013-02-21 18:22:00,
2013-02-21 13:32:00,-999.0,-99.9,30.42,SSW,209,7.0,11.0,-999,-99.99,,,-99.99,,2013-02-21 18:32:00,
2013-02-21 13:42:00,-999.0,-99.9,30.42,SW,236,8.0,11.0,-999,-99.99,,,-99.99,,2013-02-21 18:42:00,
2013-02-21 13:52:00,14.0,-99.9,30.42,SSW,199,5.0,8.0,-999,-99.99,,,-99.99,,2013-02-21 18:52:00,
2013-02-21 14:02:00,-999.0,-99.9,30.42,WSW,244,3.0,9.0,-999,-99.99,,,-99.99,,2013-02-21 19:02:00,
2013-02-21 14:12:00,-999.0,-99.9,30.42,West,274,8.0,11.0,-999,-99.99,,,-99.99,,2013-02-21 19:12:00,
2013-02-21 14:22:00,14.0,-99.9,30.44,WNW,283,8.0,13.0,-999,-99.99,,,-99.99,,2013-02-21 19:22:00,
2013-02-21 14:32:00,-999.0,-99.9,30.44,WNW,301,7.0,9.0,-999,-99.99,,,-99.99,,2013-02-21 19:32:00,
2013-02-21 14:42:00,-999.0,-99.9,30.45,WNW,303,9.0,11.0,-999,-99.99,,,-99.99,,2013-02-21 19:42:00,
2013-02-21 14:52:00,-999.0,-99.9,30.45,WNW,303,9.0,11.0,-999,-99.99,,,-99.99,,2013-02-21 19:52:00,
2013-02-21 15:01:00,-999.0,-99.9,30.45,WNW,302,5.0,10.0,-999,-99.99,,,-99.99,,2013-02-21 20:01:00,
2013-02-21 15:11:00,-999.0,-99.9,30.45,WNW,290,6.0,8.0,-999,-99.99,,,-99.99,,2013-02-21 20:11:00,
2013-02-21 15:22:00,15.0,-99.9,30.45,WNW,293,6.0,8.0,-999,-99.99,,,-99.99,,2013-02-21 20:22:00,
2013-02-21 15:32:00,-999.0,-99.9,30.44,NW,320,8.0,9.0,-999,-99.99,,,-99.99,,2013-02-21 20:32:00,
2013-02-21 15:42:00,-999.0,-99.9,30.44,NW,310,7.0,10.0,-999,-99.99,,,-99.99,,2013-02-21 20:42:00,
2013-02-21 15:53:00,16.0,-99.9,30.45,West,271,6.0,9.0,-999,-99.99,,,-99.99,,2013-02-21 20:53:00,
2013-02-21 16:02:00,-999.0,-99.9,30.45,WNW,294,7.0,10.0,-999,-99.99,,,-99.99,,2013-02-21 21:02:00,
2013-02-21 16:12:00,-999.0,-99.9,30.44,West,269,3.0,6.0,-999,-99.99,,,-99.99,,2013-02-21 21:12:00,
2013-02-21 16:22:00,17.0,-99.9,30.44,WNW,292,7.0,8.0,-999,-99.99,,,-99.99,,2013-02-21 21:22:00,
2013-02-21 16:32:00,-999.0,-99.9,30.43,WNW,297,5.0,6.0,-999,-99.99,,,-99.99,,2013-02-21 21:32:00,
2013-02-21 16:42:00,-999.0,-99.9,30.42,NW,312,4.0,5.0,-999,-99.99,,,-99.99,,2013-02-21 21:42:00,
2013-02-21 16:52:00,18.0,-99.9,30.43,WNW,300,3.0,5.0,-999,-99.99,,,-99.99,,2013-02-21 21:52:00,
2013-02-21 17:02:00,-999.0,-99.9,30.43,West,280,3.0,6.0,-999,-99.99,,,-99.99,,2013-02-21 22:02:00,
2013-02-21 17:11:00,-999.0,-99.9,30.42,WSW,245,1.0,4.0,-999,-99.99,,,-99.99,,2013-02-21 22:11:00,
2013-02-21 17:22:00,19.0,-99.9,30.41,NNW,335,1.0,2.0,-999,-99.99,,,-99.99,,2013-02-21 22:22:00,
2013-02-21 17:32:00,-999.0,-99.9,30.41,NW,320,4.0,4.0,-999,-99.99,,,-99.99,,2013-02-21 22:32:00,
2013-02-21 17:42:00,-999.0,-99.9,30.40,NW,319,2.0,2.0,-999,-99.99,,,-99.99,,2013-02-21 22:42:00,
2013-02-21 17:52:00,18.0,-99.9,30.40,NW,312,3.0,4.0,-999,-99.99,,,-99.99,,2013-02-21 22:52:00,
2013-02-21 18:01:00,-999.0,-99.9,30.39,WNW,301,2.0,4.0,-999,-99.99,,,-99.99,,2013-02-21 23:01:00,
2013-02-21 18:11:00,-999.0,-99.9,30.39,WSW,256,1.0,2.0,-999,-99.99,,,-99.99,,2013-02-21 23:11:00,
2013-02-21 18:22:00,18.0,-99.9,30.40,WNW,283,1.0,2.0,-999,-99.99,,,-99.99,,2013-02-21 23:22:00,
2013-02-21 18:32:00,-999.0,-99.9,30.40,NE,47,1.0,4.0,-999,-99.99,,,-99.99,,2013-02-21 23:32:00,
2013-02-21 18:42:00,-999.0,-99.9,30.40,SSW,205,0.0,2.0,-999,-99.99,,,-99.99,,2013-02-21 23:42:00,
2013-02-21 18:53:00,18.0,-99.9,30.40,WSW,242,-999.0,1.0,-999,-99.99,,,-99.99,,2013-02-21 23:53:00,
2013-02-21 19:02:00,-999.0,-99.9,30.41,WSW,242,5.0,6.0,-999,-99.99,,,-99.99,,2013-02-22 00:02:00,
2013-02-21 19:11:00,-999.0,-99.9,30.43,SW,236,4.0,6.0,-999,-99.99,,,-99.99,,2013-02-22 00:11:00,
2013-02-21 19:22:00,16.0,-99.9,30.43,SW,233,6.0,7.0,-999,-99.99,,,-99.99,,2013-02-22 00:22:00,
2013-02-21 19:32:00,-999.0,-99.9,30.42,SW,235,4.0,6.0,-999,-99.99,,,-99.99,,2013-02-22 00:32:00,
2013-02-21 19:42:00,-999.0,-99.9,30.42,NW,323,3.0,4.0,-999,-99.99,,,-99.99,,2013-02-22 00:42:00,
2013-02-21 19:52:00,15.0,-99.9,30.42,West,274,3.0,3.0,-999,-99.99,,,-99.99,,2013-02-22 00:52:00,
2013-02-21 20:01:00,-999.0,-99.9,30.42,WNW,288,2.0,3.0,-999,-99.99,,,-99.99,,2013-02-22 01:01:00,
2013-02-21 20:11:00,-999.0,-99.9,30.41,NW,312,3.0,4.0,-999,-99.99,,,-99.99,,2013-02-22 01:11:00,
2013-02-21 20:22:00,15.0,-99.9,30.41,North,8,1.0,4.0,-999,-99.99,,,-99.99,,2013-02-22 01:22:00,
2013-02-21 20:32:00,-999.0,-99.9,30.41,East,82,2.0,3.0,-999,-99.99,,,-99.99,,2013-02-22 01:32:00,
2013-02-21 20:42:00,-999.0,-99.9,30.41,ESE,104,2.0,2.0,-999,-99.99,,,-99.99,,2013-02-22 01:42:00,
2013-02-21 20:52:00,-999.0,-99.9,30.41,South,178,2.0,2.0,-999,-99.99,,,-99.99,,2013-02-22 01:52:00,
2013-02-21 21:02:00,-999.0,-99.9,30.41,South,187,4.0,4.0,-999,-99.99,,,-99.99,,2013-02-22 02:02:00,
2013-02-21 21:11:00,-999.0,-99.9,30.41,South,184,2.0,3.0,-999,-99.99,,,-99.99,,2013-02-22 02:11:00,
2013-02-21 21:22:00,10.0,-99.9,30.41,South,182,4.0,4.0,-999,-99.99,,,-99.99,,2013-02-22 02:22:00,
2013-02-21 21:32:00,-999.0,-99.9,30.40,South,170,1.0,2.0,-999,-99.99,,,-99.99,,2013-02-22 02:32:00,
2013-02-21 21:52:00,10.0,-99.9,30.39,NNE,20,1.0,2.0,-999,-99.99,,,-99.99,,2013-02-22 02:52:00,
2013-02-21 22:02:00,-999.0,-99.9,30.39,NNE,14,0.0,2.0,-999,-99.99,,,-99.99,,2013-02-22 03:02:00,
2013-02-21 22:11:00,-999.0,-99.9,30.39,NNE,23,2.0,2.0,-999,-99.99,,,-99.99,,2013-02-22 03:11:00,
2013-02-21 22:22:00,-999.0,-99.9,30.39,ESE,116,1.0,2.0,-999,-99.99,,,-99.99,,2013-02-22 03:22:00,
2013-02-21 22:32:00,-999.0,-99.9,30.39,ESE,117,2.0,3.0,-999,-99.99,,,-99.99,,2013-02-22 03:32:00,
2013-02-21 22:42:00,-999.0,-99.9,30.39,SE,143,2.0,3.0,-999,-99.99,,,-99.99,,2013-02-22 03:42:00,
2013-02-21 22:52:00,7.0,-99.9,30.39,South,184,1.0,2.0,-999,-99.99,,,-99.99,,2013-02-22 03:52:00,
2013-02-21 23:02:00,-999.0,-99.9,30.39,South,186,3.0,3.0,-999,-99.99,,,-99.99,,2013-02-22 04:02:00,
2013-02-21 23:11:00,-999.0,-99.9,30.39,South,184,2.0,3.0,-999,-99.99,,,-99.99,,2013-02-22 04:11:00,
2013-02-21 23:22:00,-999.0,-99.9,30.39,South,185,1.0,2.0,-999,-99.99,,,-99.99,,2013-02-22 04:22:00,
2013-02-21 23:32:00,-999.0,-99.9,30.39,SSE,165,1.0,2.0,-999,-99.99,,,-99.99,,2013-02-22 04:32:00,
2013-02-21 23:52:00,8.0,-99.9,30.39,SSE,157,1.0,1.0,-999,-99.99,,,-99.99,,2013-02-22 04:52:00,